This is the latest recevied weather packets stored in our database for station/object WA0GMH-1. If no packets are shown the sender has not sent any weather packets the latest 1 day(s).
| Time | Temp. | Humidity | Pressure | Rain* | Wind** | Luminosity | Snow |
|---|---|---|---|---|---|---|---|
| 1778021682 | 13.89° C | 62% | 1013.1 hPa | 0 mm | 0 m/s | - | - |
| 1778021280 | 14.44° C | 62% | 1013 hPa | 0 mm | 0 m/s | - | - |
| 1778020878 | 15° C | 61% | 1013.3 hPa | 0 mm | 0 m/s | - | - |
| 1778020475 | 15° C | 62% | 1013 hPa | 0 mm | 0 m/s | - | - |
| 1778020073 | 14.44° C | 62% | 1013.3 hPa | 0 mm | 0 m/s | - | - |
| 1778019671 | 14.44° C | 63% | 1013 hPa | 0 mm | 0 m/s | - | - |
| 1778018866 | 13.89° C | 63% | 1013.2 hPa | 0 mm | 0 m/s | - | - |
| 1778018464 | 14.44° C | 63% | 1013.2 hPa | 0 mm | 0 m/s | - | - |
| 1778018062 | 14.44° C | 63% | 1013.2 hPa | 0 mm | 0 m/s | - | - |
| 1778017660 | 13.89° C | 62% | 1013.2 hPa | 0 mm | 0 m/s | - | - |
| 1778017257 | 14.44° C | 62% | 1013.3 hPa | 0 mm | 0 m/s | - | - |
| 1778016855 | 14.44° C | 65% | 1013.3 hPa | 0 mm | 0 m/s | - | - |
| 1778016453 | 13.89° C | 64% | 1013.2 hPa | 0 mm | 0 m/s | - | - |
| 1778016051 | 13.89° C | 66% | 1013.4 hPa | 0 mm | 0 m/s | - | - |
| 1778015648 | 13.89° C | 65% | 1013.4 hPa | 0 mm | 0 m/s | - | - |
| 1778015247 | 13.33° C | 66% | 1013.7 hPa | 0 mm | 0 m/s | - | - |
| 1778014844 | 13.33° C | 66% | 1013.7 hPa | 0 mm | 0 m/s | - | - |
| 1778014442 | 13.33° C | 65% | 1013.7 hPa | 0 mm | 0 m/s | - | - |
| 1778014039 | 12.22° C | 69% | 1013.8 hPa | 0 mm | 0 m/s | - | - |
| 1778013638 | 12.22° C | 66% | 1013.8 hPa | 0 mm | 0 m/s | - | - |
| 1778013235 | 12.78° C | 67% | 1013.8 hPa | 0 mm | 0 m/s | - | - |
| 1778012833 | 12.22° C | 67% | 1013.9 hPa | 0 mm | 0 m/s | - | - |
| 1778012430 | 12.22° C | 68% | 1014.1 hPa | 0 mm | 0 m/s | - | - |
| 1778012029 | 12.22° C | 68% | 1014.1 hPa | 0 mm | 0 m/s | - | - |
| 1778011626 | 12.22° C | 68% | 1014.1 hPa | 0 mm | 0 m/s | - | - |
* Rain since midnight (hover to see other rain measurements)
** Current wind speed in m/s (hover to see current wind gust speed)